Weather reports worldwide

Advertisment
Benson, United Kingdom (3658): temperature & dewpoint: 23.06.2017 10:00:00 - 29.06.2017 10:00:00 (BST)Benson, United Kingdom (3658): temperature -20cm & temperature -100cm: 23.06.2017 10:00:00 - 29.06.2017 10:00:00 (BST)Benson, United Kingdom (3658): wind speed & gusts: 23.06.2017 10:00:00 - 29.06.2017 10:00:00 (BST)Benson, United Kingdom (3658): wind direction: 23.06.2017 10:00:00 - 29.06.2017 10:00:00 (BST)Benson, United Kingdom (3658): reduced air pressure: 23.06.2017 10:00:00 - 29.06.2017 10:00:00 (BST)Benson, United Kingdom (3658): visibility: 23.06.2017 10:00:00 - 29.06.2017 10:00:00 (BST)Benson, United Kingdom (3658): precipitation: 23.06.2017 10:00:00 - 29.06.2017 10:00:00 (BST)
Date & Time tt [°C] td [°C] tt -20cm [°C] tt -100cm [°C] ff [km/h] ff [kn] fx [km/h] fx [kn] dd ppp [hPa] vv [km] rr [mm]
29.06.2017 10:00:00 - - - - - - - - - - - -
29.06.2017 09:00:00 12,4 9,3 - - 11 6 - - W 995,3 10 0,0
29.06.2017 08:00:00 11,7 9,2 - - 9 5 - - W 995,1 10 0,0
29.06.2017 07:00:00 11,5 9,2 - - 11 6 - - WNW 994,9 10 0,0
29.06.2017 06:00:00 10,8 9,1 - - 8 4 - - W 994,9 10 0,0
29.06.2017 05:00:00 10,4 9,2 - - 8 4 - - WNW 994,8 10 0,0
29.06.2017 04:00:00 11,1 9,3 - - 8 4 - - W 995,0 10 0,0
29.06.2017 03:00:00 11,5 9,3 - - 4 2 - - WNW 995,3 10 0,0
29.06.2017 02:00:00 11,6 9,5 - - 5 3 - - NW 995,8 10 0,0
29.06.2017 01:00:00 11,7 9,6 - - 5 3 - - NNW 996,3 10 0,0
29.06.2017 00:00:00 12,2 9,5 - - 9 5 - - NNW 996,6 10 0,0
28.06.2017 23:00:00 12,4 9,7 - - 9 5 - - N 996,9 10 0,0
28.06.2017 22:00:00 12,6 9,7 - - 13 7 - - N 997,1 10 0,0
28.06.2017 21:00:00 13,4 10,2 - - 15 8 - - N 997,0 10 0,0
28.06.2017 20:00:00 13,8 10,9 - - 15 8 - - N 997,2 10 0,0
28.06.2017 19:00:00 14,2 11,5 - - 13 7 - - N 997,3 10 0,0
28.06.2017 18:00:00 14,5 11,8 - - 16 9 - - N 997,2 10 0,0
28.06.2017 17:00:00 14,9 12,2 - - 13 7 - - N 997,4 10 0,0
28.06.2017 16:00:00 14,9 12,5 - - 15 8 - - N 997,4 10 0,0
28.06.2017 15:00:00 14,7 12,7 - - 16 9 - - N 997,8 10 0,0
28.06.2017 14:00:00 14,9 13,2 - - 18 10 - - N 997,9 10 0,0
28.06.2017 13:00:00 16,1 13,3 - - 18 10 - - NNE 997,9 10 0,0
28.06.2017 12:00:00 15,5 13,3 - - 21 11 - - NNE 998,1 10 0,0
28.06.2017 11:00:00 15,9 13,7 - - 13 7 - - NNE 998,1 10 0,0
28.06.2017 10:00:00 15,7 14,4 18,4 16,2 15 8 - - NNE 998,1 7 0,0
28.06.2017 09:00:00 14,9 14,0 - - 13 7 - - N 998,2 6 0,0
28.06.2017 08:00:00 14,9 14,2 - - 11 6 - - N 998,2 6 0,0
28.06.2017 07:00:00 14,4 13,9 - - 13 7 - - N 998,5 4,0 0,0
28.06.2017 06:00:00 14,1 13,7 - - 11 6 - - N 998,7 4,0 0,0
28.06.2017 05:00:00 13,9 13,5 - - 13 7 - - NNE 998,9 4,0 0,0
28.06.2017 04:00:00 14,0 13,6 - - 9 5 - - N 999,3 5 0,0
28.06.2017 03:00:00 14,2 13,8 - - 9 5 - - NNE 999,9 4,0 0,2
28.06.2017 02:00:00 14,3 14,0 - - 8 4 - - N 1000,7 3,2 0,6
28.06.2017 01:00:00 14,5 14,2 - - 5 3 - - N 1001,5 2,7 2,6
28.06.2017 00:00:00 14,8 14,4 - - 5 3 - - N 1002,0 4,0 1,8
27.06.2017 23:00:00 15,3 14,5 - - 5 3 - - NE 1002,5 4,0 1,0
27.06.2017 22:00:00 15,6 14,8 - - 9 5 - - ENE 1002,8 4,0 1,2
27.06.2017 21:00:00 16,1 15,4 - - 8 4 - - NE 1002,9 4,0 0,4
27.06.2017 20:00:00 16,6 15,7 - - 9 5 - - ENE 1003,3 5 0,2
27.06.2017 19:00:00 17,0 16,0 - - 9 5 - - ENE 1003,4 6 0,6
27.06.2017 18:00:00 17,1 15,8 - - 16 9 - - E 1003,8 5 1,0
27.06.2017 17:00:00 17,9 15,8 - - 15 8 - - E 1004,4 10 0,2
27.06.2017 16:00:00 19,9 14,1 - - 9 5 - - SSE 1004,7 10 0,0
27.06.2017 15:00:00 20,8 13,0 - - 8 4 - - ESE 1004,8 10 0,0
27.06.2017 14:00:00 20,7 12,2 - - 8 4 - - E 1005,2 10 0,0
27.06.2017 13:00:00 21,1 11,8 - - 9 5 - - SSE 1005,8 10 0,0
27.06.2017 12:00:00 19,9 11,5 - - 11 6 - - SSE 1006,7 10 0,0
27.06.2017 11:00:00 19,2 9,9 - - 15 8 - - E 1006,8 10 0,0
27.06.2017 10:00:00 18,1 7,8 18,7 16,2 13 7 - - SSE 1007,4 10 0,0
27.06.2017 09:00:00 18,4 7,1 - - 13 7 - - E 1007,7 10 0,0
27.06.2017 08:00:00 17,1 7,8 - - 8 4 - - E 1008,0 10 0,0
27.06.2017 07:00:00 15,5 9,5 - - 5 3 - - ENE 1008,7 10 0,0
27.06.2017 06:00:00 14,9 9,4 - - 4 2 - - E 1009,3 10 0,0
27.06.2017 05:00:00 14,1 9,3 - - 4 2 - - SW 1009,7 10 0,0
27.06.2017 04:00:00 14,4 9,2 - - 4 2 - - ESE 1010,2 30 0,0
27.06.2017 03:00:00 14,6 9,7 - - 9 5 - - ESE 1010,9 10 0,0
27.06.2017 02:00:00 15,5 9,1 - - 21 11 - - ESE 1011,0 10 0,0
27.06.2017 01:00:00 16,1 8,7 - - 22 12 - - E 1011,4 10 0,0
27.06.2017 00:00:00 17,2 10,9 - - 15 8 - - ESE 1011,5 10 0,0
26.06.2017 23:00:00 18,0 10,6 - - 21 11 - - SE 1011,6 10 0,0
26.06.2017 22:00:00 18,1 9,4 - - 15 8 - - NE 1011,4 10 0,0
26.06.2017 21:00:00 19,4 9,9 - - 11 6 - - NNE 1011,4 10 0,0
26.06.2017 20:00:00 20,6 9,5 - - 13 7 - - NNE 1011,7 10 0,0
26.06.2017 19:00:00 21,3 8,4 - - 13 7 - - NE 1011,9 10 0,0
26.06.2017 18:00:00 22,2 8,0 - - 9 5 - - ENE 1012,2 10 0,0
26.06.2017 17:00:00 23,4 7,9 - - 9 5 - - E 1012,3 10 0,0
26.06.2017 16:00:00 23,0 8,6 - - 4 2 - - SSE 1012,9 10 0,0
26.06.2017 15:00:00 21,7 8,1 - - 8 4 - - N 1013,4 10 0,0
26.06.2017 14:00:00 21,0 6,8 - - 5 3 - - E 1014,0 10 0,0
26.06.2017 13:00:00 20,3 6,2 - - 13 7 - - N 1014,5 10 0,0
26.06.2017 12:00:00 19,6 6,2 - - 8 4 - - NE 1014,8 10 0,0
26.06.2017 11:00:00 18,2 6,0 - - 11 6 - - NNE 1014,5 10 0,0
26.06.2017 10:00:00 17,3 5,8 18,2 16,2 11 6 - - N 1014,8 0,3 0,0
26.06.2017 09:00:00 15,6 6,6 - - 9 5 - - NNE 1015,3 10 0,0
26.06.2017 08:00:00 14,5 7,0 - - 9 5 - - NE 1015,5 10 0,0
26.06.2017 07:00:00 13,6 9,6 - - 2 1 - - NE 1015,3 10 0,0
26.06.2017 06:00:00 9,9 8,4 - - 5 3 - - ENE 1015,1 10 0,0
26.06.2017 05:00:00 8,7 7,7 - - 5 3 - - ENE 1014,8 24 0,0
26.06.2017 04:00:00 9,9 8,7 - - 4 2 - - ENE 1014,7 30 0,0
26.06.2017 03:00:00 11,2 10,2 - - 4 2 - - NE 1014,8 30 0,0
26.06.2017 02:00:00 12,3 11,2 - - 4 2 - - NE 1015,0 10 0,0
26.06.2017 01:00:00 14,3 11,5 - - 5 3 - - N 1014,6 35 0,0
26.06.2017 00:00:00 14,7 11,6 - - 5 3 - - N 1014,5 35 0,0
25.06.2017 23:00:00 15,8 12,1 - - 9 5 - - N 1014,2 30 0,0
25.06.2017 22:00:00 16,9 12,0 - - 13 7 - - W 1013,8 30 0,0
25.06.2017 21:00:00 17,5 11,6 - - 15 8 - - W 1013,1 30 0,0
25.06.2017 20:00:00 18,4 11,4 - - 22 12 - - W 1012,6 10 0,0
25.06.2017 19:00:00 18,3 11,3 - - 21 11 - - W 1012,4 30 0,0
25.06.2017 18:00:00 19,4 11,0 - - 22 12 - - W 1011,9 30 0,0
25.06.2017 17:00:00 20,9 11,0 - - 24 13 48 26 W 1011,7 40 0,0
25.06.2017 16:00:00 20,4 11,2 - - 29 16 50 27 WSW 1011,7 10 0,0
25.06.2017 15:00:00 19,8 11,0 - - 28 15 46 25 WSW 1011,8 35 0,0
25.06.2017 14:00:00 21,2 12,4 - - 29 16 - - WSW 1011,3 40 0,0
25.06.2017 13:00:00 22,0 13,0 - - 24 13 - - WSW 1011,6 10 0,0
25.06.2017 12:00:00 19,1 13,7 - - 21 11 - - SW 1012,1 9 0,0
25.06.2017 11:00:00 17,8 13,4 - - 18 10 - - SSW 1012,3 35 0,0
25.06.2017 10:00:00 17,6 12,2 18,4 16,2 18 10 - - WSW 1012,4 35 0,0
25.06.2017 09:00:00 17,3 12,0 - - 16 9 - - WSW 1012,6 30 0,0
25.06.2017 08:00:00 16,1 11,5 - - 16 9 - - WSW 1012,5 25 0,0
25.06.2017 07:00:00 15,0 11,6 - - 15 8 - - SW 1012,3 22 0,0
25.06.2017 06:00:00 14,9 11,9 - - 11 6 - - SW 1012,2 28 0,0
25.06.2017 05:00:00 14,7 12,3 - - 11 6 - - SSW 1012,0 30 0,0
25.06.2017 04:00:00 14,4 12,0 - - 11 6 - - SSW 1012,1 10 0,0
25.06.2017 03:00:00 12,7 11,3 - - 8 4 - - S 1012,5 29 0,0
25.06.2017 02:00:00 13,8 11,7 - - 13 7 - - SW 1012,4 35 0,0
25.06.2017 01:00:00 14,0 11,8 - - 11 6 - - WSW 1012,6 40 0,0
25.06.2017 00:00:00 14,7 11,5 - - 16 9 - - WSW 1012,6 10 0,0
24.06.2017 23:00:00 15,3 11,9 - - 18 10 - - WSW 1012,8 35 0,0
24.06.2017 22:00:00 16,9 13,0 - - 13 7 - - WSW 1012,6 10 0,0
24.06.2017 21:00:00 18,5 12,9 - - 21 11 - - WSW 1012,0 10 0,0
24.06.2017 20:00:00 19,7 13,6 - - 21 11 - - WSW 1011,8 10 0,0
24.06.2017 19:00:00 20,4 13,4 - - 22 12 - - WSW 1011,8 35 0,0
24.06.2017 18:00:00 21,3 13,2 - - 24 13 - - WSW 1011,9 10 0,0
24.06.2017 17:00:00 20,9 13,7 - - 22 12 - - WSW 1012,4 35 0,0
24.06.2017 16:00:00 21,1 13,1 - - 24 13 46 25 WSW 1012,8 10 0,0
24.06.2017 15:00:00 21,4 13,6 - - 26 14 46 25 WSW 1012,8 10 0,0
24.06.2017 14:00:00 21,3 13,7 - - 24 13 - - W 1013,3 10 0,0
24.06.2017 13:00:00 20,8 13,7 - - 26 14 - - WSW 1013,5 10 0,0
24.06.2017 12:00:00 20,6 13,4 - - 26 14 - - WSW 1013,8 40 0,0
24.06.2017 11:00:00 19,7 13,7 - - 21 11 - - WSW 1013,8 10 0,0
24.06.2017 10:00:00 19,2 13,9 18,7 16,2 21 11 - - WSW 1014,0 35 0,0
24.06.2017 09:00:00 18,6 14,5 - - 21 11 - - SW 1014,1 40 0,0
24.06.2017 08:00:00 17,2 14,9 - - 15 8 - - SSW 1014,1 35 0,0
24.06.2017 07:00:00 16,2 14,5 - - 13 7 - - SSW 1014,1 30 0,0
24.06.2017 06:00:00 16,3 14,1 - - 18 10 - - SSW 1014,0 28 0,0
24.06.2017 05:00:00 16,3 13,7 - - 16 9 - - SW 1014,2 29 0,0
24.06.2017 04:00:00 16,5 13,5 - - 16 9 - - SSW 1014,4 28 0,0
24.06.2017 03:00:00 16,7 13,5 - - 18 10 - - SSW 1014,7 10 0,0
24.06.2017 02:00:00 16,8 13,6 - - 16 9 - - SW 1015,1 10 0,0
24.06.2017 01:00:00 16,9 13,8 - - 18 10 - - SSW 1015,3 24 0,0
24.06.2017 00:00:00 17,3 13,9 - - 18 10 - - SW 1015,5 25 0,0
23.06.2017 23:00:00 17,4 13,8 - - 26 14 - - SW 1015,8 10 0,0
23.06.2017 22:00:00 18,0 13,6 - - 16 9 - - SW 1015,9 28 0,0
23.06.2017 21:00:00 18,7 13,1 - - 24 13 - - SW 1015,8 29 0,0
23.06.2017 20:00:00 19,5 13,0 - - 13 7 - - SW 1015,9 28 0,0
23.06.2017 19:00:00 19,4 12,6 - - 16 9 - - WSW 1015,8 30 0,0
23.06.2017 18:00:00 19,3 12,8 - - 18 10 - - WSW 1016,1 28 0,0
23.06.2017 17:00:00 19,4 12,2 - - 21 11 - - WSW 1016,2 10 0,0
23.06.2017 16:00:00 19,5 12,1 - - 22 12 - - SW 1016,4 10 0,0
23.06.2017 15:00:00 19,4 11,2 - - 26 14 - - WSW 1016,6 10 0,0
23.06.2017 14:00:00 19,9 11,1 - - 29 16 - - WSW 1016,7 10 0,0
23.06.2017 13:00:00 19,6 10,7 - - 26 14 46 25 WSW 1016,4 10 0,0
23.06.2017 12:00:00 20,1 10,2 - - 28 15 46 25 WSW 1016,3 10 0,0
23.06.2017 11:00:00 18,5 10,4 - - 26 14 - - WSW 1016,7 10 0,0
23.06.2017 10:00:00 18,5 9,6 19,0 16,0 28 15 - - WSW 1016,4 10 0,0

tt = temperature
td = dewpoint
tt -20cm = temperature -20cm
tt -100cm = temperature -100cm
ff = wind speed
fx = gusts
dd = wind direction
ppp = reduced air pressure
vv = visibility
rr = precipitation

Next stations